Regional Weather Roundup
Issued by NWS

Home | Current Version | Previous Version | Text Only | Print | Product List | Glossary Off
Versions: 1 2 3 4 5 6 7 8 9 10 11 12 13 14 15 16 17 18 19 20 21 22 23 24 25 26 27 28 29 30 31 32 33 34 35 36 37 38 39 40 41 42 43 44 45 46 47 48 49 50

589
ASUS43 KIND 260100
RWRIN

WEATHER ROUNDUP FOR INDIANA
NATIONAL WEATHER SERVICE INDIANAPOLIS IN
900 PM EDT MON SEP 25 2017

NOTE: "FAIR" INDICATES FEW OR NO CLOUDS BELOW 12,000 FEET WITH NO
SIGNIFICANT WEATHER AND/OR OBSTRUCTIONS TO VISIBILITY.

* - STATION DOES NOT REPORT WEATHER SUCH AS PRECIPITATION OR FOG.

+ - STATION NOT QUALITY CONTROLLED BY THE NATIONAL WEATHER SERVICE.
    USE DATA WITH CAUTION...ESPECIALLY DEWPOINT AND RELATIVE
    HUMIDITY OBSERVATIONS.

INZ001>003-010>013-019-020-260200-
NORTHWEST INDIANA

CITY           SKY/WX    TMP DP  RH WIND       PRES   REMARKS
GARY /AIRPORT/ CLEAR     70  61  73 CALM      29.95R
MICHIGAN CITY+ CLEAR     68  61  77 CALM      29.97R

$$

LMZ046-743>745-260200-
SOUTHERN LAKE MICHIGAN

STATION/POSITION TIME  TEMP    WIND        PRES    WAVE
                       AIR SEA DIR/SP/G            HT
                 (UTC) (F)     (DEG/KT/KT) (MB)    (FT)
BURNS HARBOR     0040   84     150/  3/ 10 1014.6R
MICHIGAN CITY    0030   80     110/  4/  4   N/A
5NW MICH CITY    0050   76 73  140/  4/  4   N/A     0

$$

INZ004-005-014>016-021>024-260200-
NORTH CENTRAL INDIANA

CITY           SKY/WX    TMP DP  RH WIND       PRES   REMARKS
ELKHART        CLEAR     73  57  56 CALM      29.97S
GOSHEN         CLEAR     71  60  68 CALM      29.97R
SOUTH BEND     PTCLDY    72  60  66 CALM      29.97R

$$

INZ006>009-017-018-025>027-260200-
NORTHEAST INDIANA

CITY           SKY/WX    TMP DP  RH WIND       PRES   REMARKS
FORT WAYNE     PTCLDY    74  63  68 CALM      29.98R
KENDALLVILLE + CLEAR     69  64  83 CALM      29.99R

$$

INZ028-029-035-036-043>045-051>053-260200-
WEST CENTRAL INDIANA

CITY           SKY/WX    TMP DP  RH WIND       PRES   REMARKS
LAFAYETTE      CLEAR     72  64  76 CALM      29.94R
TERRE HAUTE    CLEAR     77  62  59 CALM      29.95R

$$

INZ030>032-037>040-046>048-054>057-064-065-260200-
CENTRAL INDIANA

CITY           SKY/WX    TMP DP  RH WIND       PRES   REMARKS
COLUMBUS       CLEAR     75  57  53 SE6       29.97R
INDIANAPOLIS   PTCLDY    79  61  53 S7        29.97R
-EAGLE CREEK   CLEAR     78  62  57 CALM      29.96R
KOKOMO +       CLEAR     71  61  70 SE3       29.98R
MT COMFORT *+  CLEAR     70  61  73 SE3       29.98R
SHELBYVILLE    CLEAR     72  60  66 SE5       29.96R

$$

INZ033-034-041-042-049-050-058-059-260200-
EAST CENTRAL INDIANA

CITY           SKY/WX    TMP DP  RH WIND       PRES   REMARKS
MUNCIE         CLEAR     79  60  52 S3        29.98R
RICHMOND +     CLOUDY    72  59  64 SE6       30.01S

$$

INZ060-061-067>069-081>083-085>088-260200-
SOUTHWEST INDIANA

CITY           SKY/WX    TMP DP  RH WIND       PRES   REMARKS
EVANSVILLE     CLEAR     79  66  64 CALM      29.95R
HUNTINGBURG +  CLEAR     77  68  73 CALM      29.96R HAZE

$$

INZ062-063-066-070>080-084-089>092-260200-
SOUTH CENTRAL AND SOUTHEAST INDIANA

CITY           SKY/WX    TMP DP  RH WIND       PRES   REMARKS
BLOOMINGTON    CLEAR     75  62  64 CALM      29.97R
MADISON *+     CLEAR     72  66  83 CALM      30.00S
SEYMOUR +      CLEAR     73  66  78 CALM      29.97R

$$





USA.gov is the U.S. government's official web portal to all federal, state and local government web resources and services.